Home   Weather   Pontiac   Past weeks
Flag for USA

Past Weather in Pontiac, Michigan, USA — Yesterday and Last 2 Weeks

Now
71 °F

Scattered clouds.


Feels Like: 75 °F
Forecast: 81 / 62 °F
Wind: 18 mph from West

Location: Oakland County International Airport

Current Time: Jun 25, 2019 at 12:01:33 pm

Latest Report: Jun 25, 2019 at 10:53 am


Visibility: 10 mi

Pressure: 29.83 "Hg

Humidity: 66%

Dew Point: 59 °F

Location of PontiacLocation

Past Weather in Pontiac — Graph

°F

Pontiac Temperature Yesterday

Maximum temperature yesterday: 78 °F (at 1:53 pm)
Minimum temperature yesterday: 64 °F (at 3:53 am)
Average temperature yesterday: 71 °F

High & Low Weather Summary for the Past Weeks

 TemperatureHumidityPressure
High78 °F (Jun 18, 5:53 pm)100% (Jun 13, 12:53 am)30.18 "Hg (Jun 13, 12:53 am)
Low48 °F (Jun 11, 4:53 am)31% (Jun 12, 5:53 pm)29.57 "Hg (Jun 20, 6:53 am)
Average64 °F74%29.87 "Hg
* Reported Jun 10 10:43 am — Jun 25 10:53 am, Pontiac. Weather by CustomWeather, © 2019

Note: Actual official high and low records may vary slightly from our data, if they occured in-between our weather recording intervals... More about our weather records

Advertising

Pontiac Weather History for the Previous 24 Hours

Scroll right to see more
 ConditionsComfort  
Time TempWeatherWind HumidityBarometerVisibility
10:53 am
Tue, Jun 25
71 °FScattered clouds.18 mph66%29.83 "Hg10 mi
9:53 am69 °FScattered clouds.18 mph70%29.81 "Hg10 mi
9:38 am68 °FScattered clouds.23 mph73%29.82 "Hg10 mi
8:53 am66 °FPartly sunny.10 mph81%29.79 "Hg10 mi
8:24 am65 °FPartly sunny.16 mph85%29.80 "Hg10 mi
7:53 am64 °FPassing clouds.14 mph87%29.76 "Hg10 mi
7:34 am64 °FScattered clouds.16 mph87%29.77 "Hg10 mi
7:09 am63 °FPartly sunny.10 mph90%29.76 "Hg10 mi
6:53 am63 °FPassing clouds.9 mph90%29.73 "Hg10 mi
5:53 am62 °FPassing clouds.9 mph93%29.72 "Hg10 mi
4:53 am63 °FClear.9 mph87%29.70 "Hg10 mi
3:53 am64 °FClear.9 mph90%29.69 "Hg10 mi
2:53 am66 °FClear.13 mph90%29.67 "Hg10 mi
1:53 am66 °FPassing clouds.5 mph100%29.65 "Hg10 mi
1:44 am66 °FPartly cloudy.6 mph100%29.67 "Hg10 mi
1:37 am66 °FPartly cloudy.7 mph100%29.67 "Hg10 mi
12:53 am67 °FPassing clouds.6 mph97%29.64 "Hg10 mi
11:53 pm
Mon, Jun 24
67 °FPassing clouds.6 mph97%29.64 "Hg10 mi
10:53 pm67 °FPassing clouds.5 mph97%29.65 "Hg10 mi
9:53 pm68 °FPassing clouds.6 mph96%29.65 "Hg10 mi
8:53 pm68 °FMostly cloudy.8 mph93%29.64 "Hg10 mi
7:53 pm75 °FMore clouds than sun.10 mph69%29.59 "Hg10 mi
6:53 pm76 °FMore clouds than sun.10 mph69%29.58 "Hg10 mi
5:53 pm77 °FMostly cloudy.15 mph69%29.60 "Hg10 mi
4:53 pm76 °FMostly cloudy.7 mph72%29.61 "Hg10 mi
3:53 pm77 °FCloudy.7 mph71%29.64 "Hg10 mi
2:53 pm77 °FCloudy.8 mph69%29.64 "Hg10 mi
1:53 pm78 °FBroken clouds.14 mph69%29.64 "Hg10 mi
12:53 pm76 °FCloudy.10 mph80%29.65 "Hg10 mi
12:24 pm76 °FCloudy.9 mph80%29.68 "Hg10 mi
Weather by CustomWeather, © 2019

See weather overview